Location: Bush Observatory
(40.2653°N, 94.3194°W)
Time: 09:21:18
(UTC-06:00)

FO-29 - Visible Passes

Search period start: 16 January 2018 00:00
Search period end: 26 January 2018 00:00
Orbit: 800 x 1322 km, 98.5° (Epoch: 15 January)

Date Brightness Start Highest point End Pass type
(mag) Time Alt. Az. Time Alt. Az. Time Alt. Az.
16 Jan 12.0 06:03:51 10° E 06:08:03 17° ENE 06:12:00 10° NNE visible
17 Jan 11.1 06:51:12 10° SE 06:57:38 39° ENE 07:03:25 10° N visible
18 Jan 12.0 05:59:24 10° E 06:03:08 16° ENE 06:06:39 10° NNE visible
19 Jan 11.2 06:46:30 10° SE 06:52:42 36° ENE 06:58:15 10° N visible
20 Jan 12.1 05:55:00 10° E 05:58:12 14° ENE 06:01:15 10° NNE visible
21 Jan 11.3 06:41:48 10° SE 06:47:44 33° ENE 06:53:05 10° N visible
22 Jan 12.1 05:50:41 10° E 05:53:16 13° ENE 05:55:45 10° NE visible
23 Jan 11.4 06:37:07 10° SE 06:42:47 31° ENE 06:47:54 10° N visible
24 Jan 12.2 05:46:34 10° ENE 05:48:20 11° ENE 05:50:03 10° NE visible
25 Jan 11.5 06:32:27 10° ESE 06:37:48 28° ENE 06:42:42 10° N visible
